Location: Newark
(21.1200°N, 73.4000°E)
Time: 06:37:47
(UTC+00:00)

SR - Pass Details

Date: 29 January 2020
Orbit: 576 x 880 km, 66.7° (Epoch: 27 February)

Event Time Altitude Azimuth Distance (km) Brightness Sun altitude
Rises 13:56:35 0° 153° (SSE) 3,290 ? -14.7°
Enters shadow 14:00:19 - 126° (SE) 2,507 ? -15.6°
Reaches altitude 10° 14:01:00 10° 119° (ESE) 2,433 - -15.7°
Maximum altitude 14:02:34 11° 103° (ESE) 2,372 - -16.1°
Drops below altitude 10° 14:04:10 10° 87° (E) 2,475 - -16.5°
Sets 14:08:46 0° 54° (NE) 3,455 - -17.5°
